Home   Weather   Budapest   Past weeks
Flag for Hungary

Past Weather in Budapest, Hungary — Yesterday and Last 2 Weeks

Now
61 °F

Passing clouds.


Feels Like: 61 °F
Forecast: 54 / 51 °F
Wind: 15 mph from East

Location: Ferenc Liszt International Airport

Current Time: Apr 22, 2019 at 2:17:31 pm

Latest Report: Apr 22, 2019 at 1:30 pm


Visibility: N/A

Pressure: 29.95 "Hg

Humidity: 48%

Dew Point: 41 °F

Location of BudapestLocation

Past Weather in Budapest — Graph

°F

Budapest Temperature Yesterday

Maximum temperature yesterday: 72 °F (at 1:00 pm)
Minimum temperature yesterday: 36 °F (at 5:00 am)
Average temperature yesterday: 56 °F

High & Low Weather Summary for the Past Weeks

 TemperatureHumidityPressure
High73 °F (Apr 9, 4:00 pm)100% (Apr 8, 5:30 am)30.42 "Hg (Apr 8, 5:30 am)
Low32 °F (Apr 16, 6:00 am)21% (Apr 20, 3:30 pm)29.62 "Hg (Apr 8, 3:00 pm)
Average54 °F61%30.01 "Hg
* Reported Apr 7 1:00 pm — Apr 22 1:00 pm, Budapest. Weather by CustomWeather, © 2019

Note: Actual official high and low records may vary slightly from our data, if they occured in-between our weather recording intervals... More about our weather records

Advertising

Budapest Weather History for the Previous 24 Hours

Scroll right to see more
 ConditionsComfort  
Time TempWeatherWind HumidityBarometerVisibility
1:00 pm
Mon, Apr 22
63 °FPassing clouds.15 mph49%29.98 "HgN/A
12:30 pm61 °FPassing clouds.14 mph45%29.98 "HgN/A
12:00 pm63 °FSunny.13 mph45%29.95 "Hg10 mi
11:30 am63 °FSunny.8 mph42%29.95 "Hg10 mi
11:00 am63 °FSunny.7 mph42%29.98 "Hg10 mi
10:30 am61 °FSunny.10 mph48%29.98 "Hg10 mi
10:00 am63 °FPassing clouds.8 mph49%29.98 "HgN/A
9:30 am61 °FSunny.5 mph48%29.98 "Hg10 mi
9:00 am59 °FPassing clouds.5 mph48%29.98 "HgN/A
8:30 am57 °FSunny.3 mph51%29.98 "Hg10 mi
8:00 am54 °FPassing clouds.6 mph58%29.98 "HgN/A
7:30 am48 °FSunny.5 mph71%29.98 "Hg10 mi
7:00 am43 °FSunny.5 mph87%29.98 "Hg10 mi
6:30 am37 °FSunny.5 mph93%29.98 "Hg10 mi
6:00 am37 °FSunny.1 mph87%29.98 "Hg10 mi
5:30 am37 °FClear.No wind87%29.98 "Hg10 mi
5:00 am39 °FClear.1 mph87%29.98 "Hg10 mi
4:30 am39 °FClear.2 mph87%29.98 "Hg10 mi
4:00 am37 °FClear.5 mph93%29.98 "Hg10 mi
3:30 am39 °FClear.1 mph87%30.01 "Hg10 mi
3:00 am39 °FClear.2 mph81%30.01 "Hg10 mi
2:30 am43 °FClear.3 mph76%30.01 "Hg10 mi
2:00 am43 °FClear.2 mph76%30.01 "Hg10 mi
1:30 am41 °FClear.5 mph81%30.01 "Hg10 mi
1:00 am43 °FClear.2 mph76%30.04 "Hg10 mi
12:30 am45 °FClear.2 mph76%30.04 "Hg10 mi
12:00 am43 °FClear.2 mph76%30.04 "Hg10 mi
11:30 pm
Sun, Apr 21
50 °FClear.2 mph71%30.04 "Hg10 mi
11:00 pm46 °FClear.No wind87%30.04 "Hg10 mi
10:30 pm48 °FClear.1 mph62%30.04 "Hg10 mi
10:00 pm52 °FClear.2 mph58%30.04 "Hg10 mi
9:30 pm52 °FClear.2 mph62%30.04 "Hg10 mi
9:00 pm54 °FClear.5 mph51%30.04 "Hg10 mi
8:30 pm57 °FClear.3 mph41%30.04 "Hg10 mi
8:00 pm63 °FClear.6 mph34%30.04 "Hg10 mi
7:30 pm64 °FSunny.8 mph30%30.04 "Hg10 mi
7:00 pm68 °FSunny.9 mph30%30.04 "Hg10 mi
6:30 pm70 °FPassing clouds.8 mph29%30.04 "HgN/A
6:00 pm70 °FSunny.9 mph27%30.04 "Hg10 mi
5:30 pm72 °FPassing clouds.10 mph25%30.07 "HgN/A
5:00 pm72 °FPassing clouds.10 mph25%30.07 "HgN/A
4:30 pm72 °FPassing clouds.12 mph25%30.07 "HgN/A
4:00 pm72 °FPassing clouds.9 mph25%30.07 "HgN/A
3:30 pm72 °FPassing clouds.13 mph25%30.09 "HgN/A
3:00 pm72 °FPassing clouds.13 mph29%30.09 "HgN/A
2:30 pm70 °FSunny.13 mph27%30.09 "Hg10 mi
2:00 pm72 °FPassing clouds.15 mph29%30.12 "HgN/A
Weather by CustomWeather, © 2019

See weather overview